GFSSE_2pvu_pres_132.txt.gz
Presure
116 148 124 130 110 101 121 129 135 124 134 113 118 120 125 123 116 109 89 123 120 100 109 109 110 110 113 112 112 117 109 109 110 112 100 121 118 114 120 122 123 130 121
104 112 111 112 102 103 124 119 101 101 104 110 113 125 118 126 128 126 129 126 120 99 109 104 120 110 94 113 112 113 117 119 112 119 93 122 120 130 126 112 133 138 163
114 111 115 112 110 109 113 111 110 118 118 123 104 133 102 108 104 116 123 119 115 120 110 113 119 115 118 120 124 114 118 114 125 91 121 122 132 125 126 135 110 215 208
114 109 116 122 115 113 114 115 116 116 109 116 109 110 111 103 110 103 110 110 122 114 98 111 118 115 110 117 110 123 122 118 126 120 118 135 130 140 139 110 227 167 194
114 123 127 124 124 121 116 111 121 112 114 120 115 115 119 110 113 113 112 115 119 116 118 122 121 126 128 109 120 112 133 129 89 119 129 92 144 180 188 227 161 154 213
158 151 155 144 130 127 129 122 127 119 119 117 116 122 118 127 111 111 114 111 119 122 123 125 125 134 137 133 63 127 122 125 140 126 176 162 103 154 216 214 155 234 212
239 163 159 234 173 175 159 136 117 122 115 121 125 124 127 131 124 119 120 130 126 134 134 127 127 129 130 127 133 127 130 155 213 197 167 177 212 193 217 216 201 212 218
194 188 191 194 136 244 163 226 249 236 160 210 186 133 124 143 131 126 122 126 127 127 125 124 123 125 132 134 137 136 228 206 156 149 166 207 222 186 209 213 143 204 194
88 150 148 155 226 147 162 151 219 222 157 157 155 100 158 225 115 167 187 124 127 124 153 186 134 209 143 184 222 232 167 177 146 227 190 213 229 198 216 92 208 199 197
176 205 211 212 212 211 135 139 142 143 111 233 232 227 164 220 157 93 236 227 162 222 224 162 215 171 230 154 146 215 184 144 226 207 210 217 205 200 188 200 214 202 188
208 202 187 170 136 187 211 203 205 213 166 153 209 228 218 228 238 211 162 206 231 159 205 219 219 145 207 218 217 114 152 207 229 231 166 195 206 199 211 91 212 206 198
197 196 145 186 164 191 199 203 212 185 195 206 207 220 222 225 226 217 213 224 157 222 228 216 209 201 199 220 189 178 223 217 226 213 212 200 203 195 199 230 194 209 206
195 202 207 196 177 138 185 154 207 196 207 216 216 205 215 221 203 144 228 225 220 204 186 146 147 136 131 101 205 251 227 189 212 224 213 220 208 203 194 187 190 221 216
197 199 197 195 202 204 131 196 194 179 92 197 218 217 222 214 208 229 230 220 210 139 213 204 221 225 213 207 222 205 223 180 150 195 209 218 198 197 195 191 203 227 202
198 194 195 197 175 197 210 191 206 204 194 192 191 218 212 223 216 220 206 197 236 211 202 146 198 167 213 195 133 218 203 194 192 171 206 214 202 214 194 189 190 236 215
195 192 194 198 196 192 196 161 190 201 205 196 190 206 219 216 219 215 222 214 215 237 213 202 205 206 202 196 182 220 188 246 195 202 204 213 194 209 200 194 202 193 182
202 201 201 190 189 194 205 201 168 194 182 224 193 207 216 215 214 218 221 214 210 224 233 211 199 193 135 204 181 205 199 202 136 201 196 194 190 197 199 200 197 189 192
194 203 128 203 205 201 109 195 202 168 195 173 195 216 213 213 212 215 215 195 181 211 245 226 205 193 208 191 199 190 193 201 223 202 214 199 195 193 189 197 190 189 190
209 196 210 197 209 210 203 174 209 211 75 185 201 223 216 210 217 227 184 221 189 189 228 230 224 206 193 207 196 206 155 236 214 221 194 209 217 203 193 188 207 186 183
214 216 212 209 204 214 211 214 180 215 247 240 224 207 201 218 182 237 205 219 220 211 112 128 226 184 204 193 187 213 190 206 194 173 209 200 207 209 195 204 188 192 186
230 181 195 216 223 216 194 196 212 241 148 173 210 194 197 227 205 214 215 223 226 215 235 254 231 211 134 209 206 195 133 195 202 191 194 205 206 197 198 193 179 200 176
246 225 242 246 216 215 211 211 220 232 206 168 183 195 208 180 204 198 215 206 198 164 233 153 231 126 131 130 189 165 197 190 193 186 186 189 206 196 200 176 177 189 197
313 284 200 247 257 169 248 237 234 240 151 173 231 171 203 212 191 194 187 121 201 192 159 226 208 214 210 222 159 117 201 191 191 143 188 212 196 205 192 175 203 206 207
432 429 329 248 154 253 258 248 246 230 251 176 209 203 197 170 171 181 114 175 172 176 133 143 130 211 209 172 205 98 158 198 198 197 220 201 196 189 187 192 202 206 182
364 390 411 426 307 266 256 261 252 137 231 104 179 87 155 168 168 228 130 193 182 182 135 202 201 244 130 133 208 191 194 193 183 185 135 194 184 198 211 195 208 184 190
372 392 398 334 436 314 283 224 81 231 209 175 163 155 160 143 188 124 185 201 161 129 104 141 174 152 190 159 205 207 195 189 195 195 203 204 215 171 204 209 198 195 173

GFSSE_2pvu_pres_135.txt.gz
Presure
117 120 145 122 135 133 130 127 135 123 139 115 131 130 128 132 136 135 122 119 116 128 129 137 112 113 107 102 112 101 110 112 105 106 116 112 116 113 123 122 126 118 126
84 120 111 111 107 107 119 150 121 110 109 139 134 101 129 130 109 122 131 133 127 120 134 127 125 129 132 114 103 96 123 114 115 111 113 116 92 124 121 128 118 128 134
104 106 120 111 113 115 112 116 117 112 109 111 112 114 112 124 129 110 100 98 103 103 122 124 119 106 115 115 121 109 107 117 121 112 113 117 115 127 122 94 124 132 115
118 127 126 115 114 117 112 109 110 115 115 116 114 118 121 119 114 111 107 108 108 112 114 114 120 120 116 117 116 113 123 124 108 119 111 104 109 116 119 134 111 169 177
96 123 117 119 120 115 119 123 121 105 120 119 118 117 118 111 118 117 117 117 123 117 115 111 112 122 117 116 123 118 125 118 124 129 100 128 128 129 132 200 211 194 178
147 99 147 133 132 125 120 119 125 122 120 127 126 127 126 135 112 115 121 122 113 122 130 129 117 119 128 134 136 126 129 123 123 126 128 127 136 239 214 214 153 182 214
199 187 191 194 201 198 166 141 176 166 161 168 130 131 131 119 130 122 123 122 127 134 125 123 125 120 126 125 126 118 124 135 125 135 220 209 189 152 217 152 208 219 215
205 116 200 196 221 238 226 234 242 246 247 251 218 247 203 232 161 153 154 132 136 126 135 122 131 137 125 127 122 119 136 139 187 184 210 197 185 171 170 226 214 198 186
219 201 212 204 174 146 149 169 153 167 217 226 155 116 175 226 236 178 209 165 198 140 202 205 182 212 178 203 170 172 228 236 230 211 139 224 145 199 214 208 201 135 206
217 220 218 216 214 210 145 98 152 98 207 123 170 88 134 199 222 148 237 101 229 222 224 216 183 163 199 220 169 191 163 206 146 173 213 151 240 224 205 218 194 219 213
160 170 129 139 186 207 197 201 204 184 157 191 138 163 173 209 204 211 219 169 166 216 223 205 206 219 217 224 214 170 219 231 154 199 193 183 222 205 190 214 209 218 211
139 201 179 207 201 180 208 210 164 202 192 192 189 197 195 197 155 237 205 221 225 239 228 223 224 211 211 234 203 215 169 139 117 202 214 199 205 225 202 193 194 199 221
203 181 181 197 191 202 195 214 199 208 210 202 194 149 151 187 190 200 212 229 228 214 223 225 153 195 221 229 218 121 195 127 227 211 210 199 184 216 218 200 207 196 192
201 189 200 200 200 137 199 182 182 119 89 132 144 206 204 201 206 195 187 206 220 218 231 238 189 218 213 207 192 189 210 209 217 203 211 203 196 198 208 213 193 197 195
202 203 199 196 201 203 204 157 127 184 190 182 184 187 176 173 201 211 224 193 207 217 222 220 225 220 214 210 201 167 212 203 208 222 200 172 209 189 213 195 203 171 195
201 206 210 212 213 215 210 203 163 183 159 181 186 160 162 173 192 191 183 194 218 207 220 223 219 239 216 142 211 203 209 198 206 192 217 205 198 200 200 203 194 195 196
198 202 203 203 205 198 207 151 215 169 163 193 173 181 194 148 189 182 192 222 225 221 220 209 205 215 227 178 203 204 196 203 196 206 214 180 187 202 165 203 199 194 194
202 201 204 205 206 207 206 203 206 207 166 140 103 181 181 171 181 222 190 214 216 218 195 235 197 194 210 233 226 201 205 197 161 193 190 171 207 126 211 188 195 197 192
205 205 206 207 207 203 204 203 201 207 209 191 138 179 170 194 184 197 226 198 212 202 227 225 196 202 190 212 229 216 212 209 200 205 206 194 223 226 187 205 214 192 187
210 200 213 200 223 224 128 212 210 213 215 209 183 185 196 182 196 214 192 210 201 210 193 224 101 234 226 225 253 230 201 206 189 195 213 229 204 208 163 194 200 207 194
172 190 207 215 221 219 239 237 238 220 224 227 175 131 168 184 164 184 171 181 194 225 214 198 196 193 158 239 238 124 224 210 208 183 210 132 202 206 164 205 202 188 201
218 224 223 201 125 114 244 207 243 242 241 216 241 170 172 184 166 183 176 201 174 181 188 190 112 180 174 177 130 207 221 221 193 130 127 120 211 211 191 137 207 170 204
234 285 326 315 310 291 234 239 247 248 239 244 141 169 178 169 165 185 207 178 185 179 172 113 180 186 185 187 171 242 209 240 139 131 182 166 137 197 227 201 193 201 191
90 248 363 363 343 391 313 280 257 254 275 259 249 245 178 205 132 184 190 169 178 168 184 183 177 176 178 136 136 143 194 225 231 210 198 193 118 195 194 185 221 204 184
338 329 356 364 355 380 393 416 314 279 277 265 236 109 261 264 147 160 169 175 160 157 184 167 178 176 129 201 173 141 202 188 229 208 126 130 189 189 210 188 207 228 223
311 294 326 364 376 374 397 397 416 320 278 228 264 269 261 196 154 163 169 162 172 156 163 175 171 125 177 178 175 164 174 162 167 205 178 192 200 186 210 201 230 193 205

GFSSE_2pvu_pres_138.txt.gz
Presure
116 110 108 106 116 120 133 134 131 132 132 133 136 140 136 135 135 140 134 139 127 146 134 122 124 127 124 130 130 112 114 112 99 120 117 114 114 113 120 112 111 116 125
113 123 119 111 111 124 120 110 108 128 102 115 120 109 109 136 142 104 100 109 138 113 124 130 128 119 115 130 134 125 112 127 107 117 110 110 110 117 103 115 110 125 120
112 112 112 124 115 111 113 121 113 110 134 116 118 118 116 108 113 122 102 119 132 127 98 123 120 128 107 104 123 137 115 114 114 102 101 116 122 97 116 100 127 126 102
125 127 104 114 116 116 118 124 116 114 118 114 111 115 117 119 111 110 112 117 114 112 100 104 115 133 120 119 112 115 117 101 97 117 118 111 119 124 124 123 130 125 127
141 140 142 141 126 120 127 129 121 119 122 123 119 119 124 126 124 125 125 120 113 116 116 116 114 117 117 114 112 113 111 117 117 125 126 129 105 123 127 132 133 118 140
77 181 179 144 149 129 124 122 123 123 124 121 121 124 125 124 110 129 131 129 124 133 138 123 126 130 118 112 121 122 126 130 125 121 125 121 132 126 136 138 218 227 216
188 179 103 187 191 211 234 186 249 250 160 194 138 132 247 227 160 240 179 137 129 118 120 134 133 132 124 123 128 126 123 126 125 129 115 126 137 160 93 196 227 180 208
225 232 239 159 239 230 177 234 220 215 215 227 227 229 196 217 205 158 239 224 239 224 226 174 177 181 198 184 239 127 125 179 173 129 241 235 235 126 179 162 213 227 224
220 227 225 223 222 210 209 207 196 145 207 153 181 200 192 211 178 215 213 201 220 234 240 219 179 230 202 223 204 216 221 204 146 161 209 216 219 159 223 209 204 205 216
152 221 221 219 154 210 214 214 216 205 204 203 205 196 219 127 194 204 181 198 188 102 158 140 223 137 156 200 157 217 234 224 211 222 235 170 225 235 155 95 219 213 187
196 98 167 168 172 194 175 176 147 175 177 162 135 208 206 157 204 204 203 136 208 213 222 89 229 225 223 214 229 223 224 223 216 209 204 224 226 149 160 222 204 197 210
201 199 202 182 133 137 133 190 164 135 182 205 198 163 210 208 212 202 199 176 140 191 217 200 238 225 236 225 217 213 204 234 207 226 198 126 143 126 197 211 203 210 212
184 168 203 199 196 201 207 200 201 211 203 191 192 185 181 135 174 174 193 176 190 153 215 202 223 236 236 228 219 222 205 218 218 128 132 196 79 207 213 190 195 217 203
185 181 180 184 185 194 159 165 122 161 190 187 170 195 184 175 177 174 160 138 183 172 206 200 207 227 229 212 221 213 231 208 219 104 203 152 230 184 211 205 201 141 216
199 201 200 198 194 198 213 188 210 166 111 181 158 153 192 176 184 184 143 160 187 186 194 205 195 222 224 222 218 223 209 217 150 217 195 177 199 145 196 207 190 191 204
203 204 209 215 217 214 210 209 207 206 214 193 176 135 170 174 156 160 148 165 163 154 153 201 216 219 217 216 214 214 235 215 213 214 211 209 195 201 194 167 202 191 181
204 204 141 207 206 205 203 205 205 206 208 203 124 181 184 174 195 210 175 182 183 192 178 213 223 206 224 206 200 204 210 226 234 202 200 204 191 172 194 174 211 198 180
200 200 198 195 200 204 201 199 196 196 197 199 155 171 184 185 159 185 170 193 157 176 184 220 180 187 224 220 183 202 198 212 227 185 200 199 192 191 183 189 191 215 216
194 195 193 193 198 162 210 202 197 207 204 205 212 190 170 142 163 122 190 168 179 181 204 179 202 220 195 210 214 206 211 200 240 243 207 207 195 205 210 187 204 223 193
190 195 202 201 202 203 204 209 185 217 147 218 212 124 165 145 149 166 181 172 155 197 181 106 205 246 251 223 185 212 189 223 223 251 228 209 198 200 192 229 201 197 202
203 203 200 204 211 220 224 193 225 236 125 112 241 206 215 173 149 135 180 170 181 183 178 190 234 187 190 165 200 189 204 211 216 221 247 229 145 196 205 194 116 119 200
211 211 183 185 205 113 230 200 225 229 226 224 216 233 167 228 170 172 233 175 193 173 191 211 181 179 171 192 182 182 187 185 210 217 126 236 221 149 179 118 198 210 164
218 225 142 205 215 200 256 247 262 154 244 246 235 241 247 171 125 162 119 169 160 129 193 161 173 170 171 184 174 187 168 177 190 184 184 210 255 215 195 118 174 209 209
187 255 129 241 347 253 250 254 219 248 253 252 230 115 251 243 151 169 174 166 147 161 152 163 157 170 177 195 177 172 171 171 175 184 164 192 147 227 207 197 122 127 179
228 239 273 250 84 338 339 247 369 391 400 313 313 308 284 284 194 223 193 165 157 150 159 130 159 173 159 170 182 181 159 162 188 188 165 194 138 213 119 138 127 202 194
378 346 168 279 308 313 301 319 360 368 322 408 361 310 281 287 205 222 190 182 192 152 135 165 137 168 190 164 153 161 174 205 171 176 188 202 196 124 215 198 204 193 197

GFSSE_2pvu_pres_141.txt.gz
Presure
123 113 96 120 108 105 111 111 115 143 130 132 130 125 126 128 131 132 135 130 113 132 135 115 128 117 142 139 133 119 139 104 125 131 124 126 105 115 120 108 98 104 120
81 107 128 118 115 114 117 115 118 112 121 122 107 112 101 134 119 115 121 107 118 135 118 144 116 96 103 103 126 126 126 126 117 134 145 114 115 97 108 120 116 109 122
123 118 121 126 117 119 121 122 123 121 108 121 119 113 110 113 114 113 114 105 111 113 106 117 108 124 97 128 118 94 112 137 114 108 111 85 117 113 86 120 122 119 117
113 119 96 130 119 123 126 121 119 115 118 115 116 117 117 119 118 108 108 114 119 114 107 112 117 113 100 105 114 116 127 110 112 118 112 111 107 120 125 128 119 118 104
162 120 123 119 120 116 118 119 127 125 119 118 118 119 121 122 115 120 115 119 121 126 127 125 124 110 122 109 103 112 124 117 118 118 119 111 116 124 125 131 121 129 131
159 179 190 128 131 127 152 139 125 127 124 123 127 121 119 122 122 119 118 124 125 121 120 121 133 126 130 129 121 136 125 124 128 128 131 126 123 126 118 126 110 131 140
151 203 199 192 185 187 231 231 185 231 218 158 192 219 129 131 130 130 132 134 132 135 133 125 138 218 136 123 125 157 133 136 130 122 123 128 126 126 133 145 225 233 187
219 219 80 213 152 135 163 202 203 215 191 226 220 223 226 235 226 222 209 212 205 183 186 195 197 182 196 212 213 230 226 222 221 208 225 231 203 85 217 107 201 169 213
179 191 200 211 224 221 182 209 196 222 218 131 202 220 214 162 156 212 205 160 205 166 198 167 210 224 236 235 226 234 177 145 244 215 227 227 232 229 240 235 207 203 211
136 212 176 200 203 89 201 211 208 222 218 217 219 216 207 212 204 199 213 141 212 202 206 211 196 140 196 154 145 161 236 226 233 203 197 220 227 180 200 235 237 228 212
175 206 94 182 200 179 145 161 197 193 190 196 189 199 169 210 214 188 139 166 213 214 215 220 210 207 157 208 190 229 236 224 207 228 215 241 210 230 201 234 226 131 159
68 180 188 185 153 147 211 208 209 127 164 142 133 206 212 159 160 169 191 190 178 185 197 186 182 180 207 203 178 182 242 224 225 219 191 165 204 213 198 233 163 184 212
178 193 191 181 193 212 189 187 207 200 200 181 197 138 187 202 207 201 194 190 185 182 181 178 196 194 172 202 193 232 221 218 223 210 217 198 224 97 166 167 214 206 212
163 191 115 184 183 207 151 177 182 187 105 188 186 136 156 187 189 195 191 177 182 180 180 195 140 136 177 189 211 221 225 224 219 223 216 216 213 234 203 186 175 189 211
205 202 202 195 190 197 185 190 200 187 203 100 139 157 204 191 140 148 140 146 129 178 181 178 173 176 166 171 180 212 219 215 220 228 234 218 215 217 216 205 204 187 200
206 211 209 205 204 202 198 203 209 212 211 175 212 203 194 213 162 183 167 181 183 177 171 169 169 127 179 182 197 221 226 217 210 211 214 233 222 223 205 202 187 216 200
210 209 210 213 212 213 215 214 211 210 210 208 204 202 202 200 191 179 188 138 186 187 174 172 205 174 186 179 189 216 236 230 217 201 199 205 229 222 204 199 194 179 192
198 196 192 199 204 205 204 204 203 203 203 203 204 200 104 196 196 190 207 169 124 166 159 163 173 191 171 179 176 203 230 223 217 213 214 200 243 236 217 202 200 193 192
199 198 198 200 203 205 203 198 200 203 194 190 198 195 191 193 198 182 182 182 190 184 167 174 137 194 167 164 198 210 213 221 149 214 209 211 227 245 218 204 205 196 209
201 198 196 200 206 194 206 201 199 203 202 196 197 197 202 188 190 180 190 180 183 162 167 176 147 152 179 193 208 182 180 183 201 192 202 208 220 240 249 219 206 205 185
205 203 204 203 200 206 204 206 214 211 218 211 209 212 144 214 203 169 188 189 127 135 160 172 194 168 154 193 183 182 172 178 181 177 182 194 208 214 215 230 218 210 198
210 214 206 210 213 191 214 122 220 222 139 205 223 178 215 209 206 166 185 149 148 157 156 172 149 162 193 179 179 171 180 174 175 184 189 181 197 191 157 125 247 219 213
217 219 166 220 223 222 222 230 229 227 206 184 236 217 227 233 250 205 193 174 157 141 148 160 200 122 151 158 140 158 173 160 176 184 170 168 170 168 195 189 165 264 203
242 183 276 266 257 264 265 257 233 221 249 87 228 238 242 230 238 141 126 173 182 105 139 151 172 163 165 174 162 170 162 168 170 173 179 161 157 164 169 180 208 213 117
273 266 219 230 234 229 236 350 266 269 339 347 359 373 219 164 231 273 194 181 191 165 171 179 174 173 162 170 170 154 147 175 174 155 168 175 168 156 161 176 210 175 234
263 287 301 293 334 334 326 271 325 312 342 353 335 357 389 369 353 348 230 183 187 181 162 172 195 144 172 155 164 143 154 149 166 177 170 158 167 159 169 202 211 209 164